sat.trackr.live / text

‹ back to catalog

STARLINK-6111

NORAD 57102 · 2023-090B

PAYLOAD ACTIVE UNKNOWN

§ Identity

Operator
Country
US
Launch date
2023-06-23
Launch site
AFETR
Launch vehicle
Mass (kg)
RCS (m²)

Purposes: comms

External: N2YO · Heavens-Above · Gunter

§ Orbital elements

Epoch: 2026-09-20T08:46:49.369152Z

Period
94.27 min
Inclination
43.0019°
Eccentricity
0.0000832
Mean motion
15.27574024 rev/d
Perigee alt
482.5 km
Apogee alt
483.6 km
Semi-major
6,861.2 km
B*
8.1675e-6
RAAN
262.3006°
Arg perigee
269.4924°
Mean anomaly
90.5832°
Rev number
18,010

§ Raw data

STARLINK-61111 57102U 23090B   26263.36584918 -.00000037  00000+0  81675-5 0  99942 57102  43.0019 262.3006 0000832 269.4924  90.5832 15.27574024180106

JSON: /api/v1/satellites/57102 · /tle

For live sub-satellite position, see the globe view (requires WebGL).

§ Visibility from observer

Set your observer location to see the next 7 days of passes ≥ 10°. The values pass through the URL so the page stays shareable.

No JS? Fill the form by hand. The geolocation button needs JavaScript.